Location: Unspecified
(17.6330°N, 0.0000°E)
Time: 04:39:38
(UTC+00:00)

Transit 2A Rocket - All Passes

Search period start: 19 June 2019 00:00
Search period end: 29 June 2019 00:00
Orbit: 586 x 917 km, 66.7° (Epoch: 18 June)

Date Brightness Start Highest point End Pass type
(mag) Time Alt. Az. Time Alt. Az. Time Alt. Az.
19 Jun - 09:05:51 10° S 09:11:08 33° ESE 09:16:30 10° NE daylight
19 Jun - 10:48:46 10° WSW 10:53:39 25° WNW 10:58:35 10° N daylight
19 Jun - 19:46:22 10° NNE 19:49:45 19° ENE 19:52:57 10° ESE visible
19 Jun - 21:28:27 10° NW 21:32:07 23° WSW 21:35:36 10° SSW visible
20 Jun - 08:25:04 10° SE 08:28:49 17° ESE 08:32:37 10° ENE daylight
20 Jun - 10:05:17 10° SW 10:11:02 46° WNW 10:16:53 10° N daylight
20 Jun - 20:45:13 10° NNW 20:49:49 52° WSW 20:54:05 10° S visible
21 Jun - 09:22:29 10° SSW 09:28:31 86° WNW 09:34:39 10° NNE daylight
21 Jun - 20:02:38 10° NNW 20:07:24 68° ENE 20:11:46 10° SSE visible
22 Jun - 08:40:18 10° S 08:46:04 50° ESE 08:51:58 10° NE daylight
22 Jun - 10:25:03 10° W 10:28:49 17° WNW 10:32:36 10° NNW daylight
22 Jun - 19:20:38 10° N 19:24:50 30° ENE 19:28:45 10° SE visible
22 Jun - 21:04:45 10° WNW 21:06:56 13° WSW 21:09:04 10° SW visible
23 Jun - 07:58:48 10° SSE 08:03:43 27° ESE 08:08:42 10° NE daylight
23 Jun - 09:40:51 10° SW 09:46:07 31° WNW 09:51:27 10° N daylight
23 Jun - 18:39:33 10° NNE 18:42:09 15° ENE 18:44:39 10° E daylight
23 Jun - 20:20:37 10° NW 20:24:40 30° WSW 20:28:30 10° SSW visible
24 Jun - 07:18:37 10° SE 07:21:24 13° ESE 07:24:13 10° ENE daylight
24 Jun - 08:57:37 10° SW 09:03:33 57° WNW 09:09:32 10° N daylight
24 Jun - 19:37:38 10° NNW 19:42:20 70° WSW 19:46:40 10° SSE visible
25 Jun - 08:15:03 10° SSW 08:21:04 77° ESE 08:27:10 10° NNE daylight
25 Jun - 10:02:45 10° WNW 10:04:02 11° WNW 10:05:19 10° NW daylight
25 Jun - 18:55:16 10° N 18:59:52 50° ENE 19:04:08 10° SE visible
26 Jun - 07:33:04 10° S 07:38:39 40° ESE 07:44:18 10° NE daylight
26 Jun - 09:16:50 10° WSW 09:21:16 21° WNW 09:25:43 10° NNW daylight
26 Jun - 18:13:30 10° N 18:17:16 23° ENE 18:20:49 10° ESE daylight
26 Jun - 19:56:28 10° WNW 19:59:31 17° WSW 20:02:26 10° SSW visible
27 Jun - 06:51:53 10° SSE 06:56:18 21° ESE 07:00:46 10° ENE daylight
27 Jun - 08:33:03 10° SW 08:38:38 38° WNW 08:44:14 10° N daylight
27 Jun - 17:33:17 10° NE 17:34:32 11° ENE 17:35:46 10° ENE daylight
27 Jun - 19:12:53 10° NW 19:17:13 39° WSW 19:21:16 10° S visible
28 Jun - 06:13:22 10° ESE 06:14:01 10° ESE 06:14:40 10° E daylight
28 Jun - 07:50:03 10° SSW 07:56:04 71° WNW 08:02:09 10° NNE daylight
28 Jun - 18:30:08 10° NNW 18:34:50 88° ENE 18:39:11 10° SSE daylight
